Regional Weather Roundup
Issued by NWS Cleveland, OH

Home | Current Version | Previous Version | Graphics & Text | Print | Product List | Glossary On
Versions: 1 2 3 4 5 6 7 8 9 10 11 12 13 14 15 16 17 18 19 20 21 22 23 24 25 26 27 28 29 30 31 32 33 34 35 36 37 38 39 40 41 42 43 44 45 46 47 48 49 50
000
ASUS41 KCLE 071702
RWRCLE
OHIO REGIONAL WEATHER ROUNDUP
NATIONAL WEATHER SERVICE CLEVELAND, OH
100 PM EDT TUE JUL 07 2015

NOTE: "FAIR" INDICATES FEW OR NO CLOUDS BELOW 12,000 FEET WITH NO
SIGNIFICANT WEATHER AND/OR OBSTRUCTIONS TO VISIBILITY.

OHZ001>008-015>018-024>027-034-035-043-044-071800-
   NORTHWEST OHIO

CITY           SKY/WX    TMP DP  RH WIND       PRES   REMARKS
DEFIANCE       LGT RAIN  74  71  91 SW8       29.89F
FINDLAY        CLOUDY    80  71  74 SW13      29.91R
TOLEDO EXPRESS LGT RAIN  72  70  93 SW7       29.88F
TOLEDO EXEC    LGT RAIN  73  69  87 SW10      29.89F
LIMA           CLOUDY    78  71  79 SW10      29.92S
$$

OHZ009>014-019>023-028>033-038-089-071800-
   NORTHEAST OHIO

CITY           SKY/WX    TMP DP  RH WIND       PRES   REMARKS
CLE-HOPKINS    PTSUNNY   84  71  65 SW17G24   29.93F
CLE-LAKEFRONT  LGT RAIN  85  70  60 S17       29.89F
CUY CO. ARPT   PTSUNNY   84  72  65 SW14G23   29.92F
LORAIN-ELYRIA  PTSUNNY   83  69  62 SW17G25   29.91F
ASHTABULA      MOSUNNY   84  72  67 SW16G25   29.92F
AKRON-CANTON   PTSUNNY   81  70  69 SW15G23   29.97F
WOOSTER        PTSUNNY   79  70  74 SW9       29.96F
MANSFIELD      PTSUNNY   81  69  67 S21       29.95F
YOUNGSTOWN     CLOUDY    83  70  64 S13G24    29.96F
$$

OHZ042-051>053-060>062-070>072-077>081-071800-
  SOUTHWEST OHIO

CITY           SKY/WX    TMP DP  RH WIND       PRES   REMARKS
CINC-COVINGTON LGT RAIN  77  72  84 S18G24    29.96F
CINC-LUNKEN    CLOUDY    82  72  71 SW18G24   29.95F
HAMILTON       PTSUNNY   82  73  74 SW9G17    29.94F
DAYTON         CLOUDY    81  72  74 SW15      29.95F
WRIGHT-PAT AFB NOT AVBL
DAYTON GENERAL CLOUDY    79  72  79 S12       29.95F
WILMINGTON     CLOUDY    80  70  71 S16       29.96F
$$

OHZ036-037-039>041-045>050-054>059-063>069-073>076-082>088-071800-
  CENTRAL AND SOUTHEAST OHIO

CITY           SKY/WX    TMP DP  RH WIND       PRES   REMARKS
COLUMBUS       PTSUNNY   82  70  66 S14       29.96F
OSU AIRPORT    PTSUNNY   83  70  64 S17       29.95F
BOLTON FIELD   CLOUDY    81  72  74 S14G20    29.97F
RICKENBACK AFB NOT AVBL
NEWARK         MOSUNNY   85  71  63 SW13      29.97F HX  90
MARION         CLOUDY    81  71  71 S15G23    29.93F
LANCASTER      PTSUNNY   82  71  69 S12G21    29.98F
ZANESVILLE     NOT AVBL
NEW PHILLY     PTSUNNY   81  74  79 S6        29.98F
$$


USA.gov is the U.S. government's official web portal to all federal, state and local government web resources and services.